Meteo Giornale » Osservazioni meteo Stati Uniti (USA) » Clemson-Oconee
ore: 11:54 - Osservazioni Meteo Clemson-Oconee
Lat. 34° 40' N Lon. 82° 52' W Alt. 272 metri s.l.m.
29 °C
Poco Nuvoloso
Temp. 24 Ore
22 °C
31 °C
Nord
7.4 Km/h
Dew point 22 °C
Umidità 66 %
Visibilità 10 Km
Il sole sorge alle ore 07:03
Il sole tramonta alle ore 19:59
| Data e Ora | Cielo e Fenomeni | T °C | DP °C | Um. % | Pres. hPa | Vis. km | Vento km/h | |
|---|---|---|---|---|---|---|---|---|
| Oggi h: 11:54 | Poco Nuvoloso | 29 | 22 | 66 | 1022 | 10 | N 7.4 | |
| Oggi h: 10:54 | Sereno | 28 | 23 | 74 | 1022 | 14 | O 7.4 | |
| Oggi h: 09:54 | Sereno | 26 | 22 | 78 | 1022 | 10 | O/SO 7.4 | |
| Oggi h: 08:54 | Sereno | 24 | 22 | 88 | 1022 | 13 | N 0 | |
| Oggi h: 07:54 | Foschia | 22 | 21 | 94 | 1022 | 10 | N 0 | |
| Oggi h: 06:54 | Sereno | 22 | 21 | 94 | 1021 | 11 | N 0 | |
| Oggi h: 05:54 | Molto Nuvoloso | 22 | 21 | 94 | 1021 | 13 | N 0 | |
| Oggi h: 04:54 | Molto Nuvoloso | 22 | 21 | 94 | 1021 | 13 | N 0 | |
| Oggi h: 03:54 | Sereno | 23 | 21 | 88 | 1020 | 14 | N 0 | |
| Oggi h: 02:54 | Nuvoloso | 22 | 21 | 94 | 1021 | 14 | N 0 | |
| Oggi h: 01:54 | Sereno | 23 | 21 | 88 | 1021 | 10 | N 0 | |
| Oggi h: 00:54 | Sereno | 23 | 22 | 94 | 1021 | 10 | N 0 | |
| Ieri h: 23:54 | Sereno | 24 | 21 | 83 | 1021 | 10 | N 0 | |
| Ieri h: 22:54 | Sereno | 25 | 21 | 78 | 1021 | 10 | N 0 | |
| Ieri h: 21:54 | Sereno | 26 | 21 | 73 | 1021 | 10 | N 0 | |
| Ieri h: 20:54 | Sereno | 27 | 21 | 69 | 1020 | 10 | N 0 | |
| Ieri h: 19:54 | Sereno | 28 | 20 | 61 | 1020 | 10 | N 0 | |
| Ieri h: 18:54 | Sereno | 29 | 21 | 62 | 1020 | 10 | N 5.5 | |
| Ieri h: 17:54 | Sereno | 31 | 20 | 52 | 1020 | 10 | N 5.5 | |
| Ieri h: 16:54 | Sereno | 31 | 19 | 48 | 1020 | 10 | N 0 | |
| Ieri h: 15:54 | Nuvoloso | 31 | 21 | 55 | 1020 | 10 | N 9.3 | |
| Ieri h: 14:54 | Nuvoloso | 30 | 21 | 58 | 1021 | 14 | N 7.4 | |
| Ieri h: 13:54 | Poco Nuvoloso | 29 | 21 | 62 | 1022 | 14 | N 9.3 | |
| Ieri h: 12:54 | Sereno | 28 | 22 | 69 | 1023 | 14 | SE 7.4 | |



